User: anonymous   Login
Location: A�n Tadlesse
(35.0351°N, 0.5353°E)
Time: 07:47:23
(UTC+00:00)
Language:

Cosmos 1570 Rocket - Orbit

View from above orbital plane
View from above orbital plane
View from above satellite
View from above satellite

Ground track
Ground track

The orbit data is extracted from the following two-line orbital elements,

1 15032U 84056B   19342.92175456 +.00000049 +00000-0 +26423-4 0  9996
2 15032 074.0701 222.1772 0017014 159.7098 200.4734 14.34791074856400
Epoch (UTC): 08 December 2019 22:07:19
Eccentricity: 0.0017014
inclination: 74.0701°
perigee height: 763 km
apogee height: 788 km
right ascension of ascending node: 222.1772°
argument of perigee: 159.7098°
revolutions per day: 14.34791074
mean anomaly at epoch: 200.4734°
orbit number at epoch: 85640

The dashed part of the orbit path shows where the satellite is in the earth's shadow,  

DLR